[Iaude] MPEC D92: 2024 DJ1 [a=1.40,e=0.34,i=19.2,H=25.0]

mpec at cfa.harvard.edu mpec at cfa.harvard.edu
Tue Feb 20 19:57:59 EST 2024


M.P.E.C. 2024-D92                             Issued 2024 February 21, 00:56 UT

     The Minor Planet Electronic Circulars contain information on unusual
         minor planets, routine data on comets and natural satellites,
         and occasional editorial announcements.  They are published
    on behalf of Division F of the International Astronomical Union by the
          Minor Planet Center, Smithsonian Astrophysical Observatory,
                          Cambridge, MA 02138, U.S.A.
			  
             Prepared using the Tamkin Foundation Computer Network

                              MPC at CFA.HARVARD.EDU
            URL https://www.minorplanetcenter.net/    ISSN 1523-6714

                                    2024 DJ1                                    


Observations:
     K24D01J*1C2024 02 19.49425513 25 48.364+10 55 23.23         18.82GVED092G96
     K24D01J 1C2024 02 19.49940213 25 50.239+10 52 48.43         19.67GVED092G96
     K24D01J 1C2024 02 19.50454013 25 52.144+10 50 14.78               VED092G96
     K24D01J 1C2024 02 19.50968613 25 54.026+10 47 39.91         19.75GVED092G96
     K24D01J 1C2024 02 19.54650113 26 07.890+10 29 02.36         19.57GVED092G96
     K24D01J 1C2024 02 19.54668513 26 07.948+10 28 58.19         21.06GVED092G96
     K24D01J 1C2024 02 19.54686913 26 08.070+10 28 51.96         20.25GVED092G96
     K24D01J 1C2024 02 19.61381413 26 41.872+09 55 33.79         20.33GVED092T12
     K24D01J 1C2024 02 19.61452413 26 42.116+09 55 12.33         20.29GVED092T12
     K24D01J 1C2024 02 19.61537413 26 42.427+09 54 46.02         20.40GVED092T12
     K24D01J KC2024 02 19.95227613 29 31.30 +06 52 59.0          19.0 GVED092L01
     K24D01J KC2024 02 19.95435013 29 32.24 +06 51 49.4          19.0 GVED092L01
     K24D01J KC2024 02 19.95642213 29 33.08 +06 50 41.0          18.7 GVED092L01
     K24D01J KC2024 02 19.95892313 29 34.23 +06 49 17.4          18.8 GVED092L01
     K24D01J KC2024 02 19.96143713 29 35.34 +06 47 53.9          18.9 GVED092L01
     K24D01J KB2024 02 20.26253 13 32 05.146+03 54 47.05         20.3 VZED092H36
     K24D01J KB2024 02 20.26760 13 32 07.462+03 51 46.37         19.5 VZED092H36
     K24D01J KB2024 02 20.27259 13 32 09.768+03 48 49.43         20.0 VZED092H36
     K24D01J KC2024 02 20.36223513 32 48.51 +02 54 49.9          19.6 GVED092H21
     K24D01J KC2024 02 20.36381713 32 49.20 +02 53 52.0          19.1 GVED092H21
     K24D01J KC2024 02 20.36540013 32 49.90 +02 52 54.3          19.2 GVED092H21
     K24D01J KC2024 02 20.36698313 32 50.58 +02 51 56.3          19.6 GVED092H21
     K24D01J KC2024 02 20.36803813 32 51.03 +02 51 17.8          20.0 GVED092H21
     K24D01J KC2024 02 20.54535313 34 15.013+01 01 40.73         19.45GVED092I52
     K24D01J KC2024 02 20.54586313 34 15.236+01 01 21.43         19.40GVED092I52
     K24D01J KC2024 02 20.54637413 34 15.452+01 01 02.39         19.27GVED092I52
     K24D01J KC2024 02 20.54688313 34 15.712+01 00 42.91         19.22GVED092I52
     K24D01J KB2024 02 21.01442 13 38 51.48 -04 09 12.6          19.6 GXED092G15
     K24D01J KB2024 02 21.01806 13 38 53.50 -04 11 44.4          19.3 GXED092G15
     K24D01J KB2024 02 21.02170 13 38 55.36 -04 14 15.0          18.8 GXED092G15

Observer details:
G15 Magroforte Observatory, Alessandria.  Observer A. De Pieri.  0.23-m f/6.7
    SC + CMO.
G96 Mt. Lemmon Survey.  Observers T. Beuden, G. J. Leonard.  Measurers T.
    Beuden, V. F. Carvajal, D. Fay, J. B. Fazekas, D. C. Fuls, A. R. Gibbs, A.
    D. Grauer, H. Groeller, J. K. Hogan, R. A. Kowalski, S. M. Larson, G. J.
    Leonard, D. Rankin, R. L. Seaman, F. C. Shelly, K. W. Wierzchos.  1.5-m
    reflector + 10K CCD.
H21 Astronomical Research Observatory, Westfield.  Observer R. Holmes.
    Measurers T. Linder, R. Holmes, L. Horn.  0.76-m f/3.0 astrograph + CCD.
H36 Sandlot Observatory, Scranton.  Observer G. Hug.  0.56-m f/4.8 reflector +
    CMO.
I52 Steward Observatory, Mt. Lemmon Station.  Observer R. A. Kowalski.
    Measurers E. C. Beshore, D. Fay, J. B. Fazekas, D. C. Fuls, A. R. Gibbs,
    A. D. Grauer, H. Groeller, J. K. Hogan, R. A. Kowalski, S. M. Larson, G.
    J. Leonard, D. Rankin, R. L. Seaman, F. C. Shelly, K. W. Wierzchos.  1.0-m
    prime focus + CCD.
L01 Visnjan Observatory, Tican.  Observer K. Korlevic.  1.0-m f/2.9 reflector
    + CCD.
T12 University of Hawaii 88-inch telescope, Maunakea.  Observer Y.
    Ramanjooloo.  Measurers R. Weryk, Y. Ramanjooloo, J. Fairlamb, R.
    Wainscoat.  2.24-m f/10.1 reflector + CCD.

Orbital elements:
2024 DJ1                                                 Earth MOID = 0.0159 AU
Epoch 2024 Mar. 31.0 TT = JDT 2460400.5                 MPC                     
M 359.53209              (2000.0)            P               Q                  
n   0.59225515     Peri.  227.45676     -0.91468567     +0.37685771             
a   1.4043116      Node   333.65238     -0.20025469     -0.73645351             
e   0.3414056      Incl.   19.21177     -0.35106721     -0.56179578             
P   1.66           H   25.08          G   0.15           U   7                  
Residuals in seconds of arc
240219 G96  0.1+  0.1+    240219 L01  0.0   0.6+    240220 H21  0.2+  0.0
240219 G96  0.2-  0.1-    240219 L01  0.3+  0.1-    240220 H21  0.0   0.2-
240219 G96  0.1-  0.9+    240219 L01  0.9-  0.5+    240220 H21  0.2-  0.2-
240219 G96  0.5-  1.0+    240219 L01  0.2-  0.1+    240220 I52  0.1+  0.1-
240219 G96  0.0   0.8-    240219 L01  0.2-  0.4+    240220 I52  0.1-  0.1-
240219 G96  0.2-  0.6+    240220 H36  0.1+  0.5-    240220 I52  0.3-  0.2+
240219 G96  0.6+  0.0     240220 H36  0.3-  0.3-    240220 I52  0.0   0.1+
240219 T12  0.0   0.3-    240220 H36  0.2-  0.9+    240221 G15  0.5-  0.4+
240219 T12  0.2-  0.1+    240220 H21  0.3+  0.1+    240221 G15  1.0+  0.4-
240219 T12  0.2-  0.1+    240220 H21  0.2+  0.1-    240221 G15  0.2+  0.1+

Ephemeris:
2024 DJ1                 a,e,i = 1.40, 0.34, 19                  q = 0.9249
Date    TT    R. A. (2000) Decl.     Delta      r    Elong.  Phase     V
2024 01 22    12 04 11.3 +51 50 45   0.2538  1.1496   125.3    44.3    24.1
...
2024 02 06    12 35 19.7 +46 59 29   0.1353  1.0754   128.5    45.9    22.6
...
2024 02 14    12 57 42.0 +36 29 07   0.07561 1.0391   131.6    45.3    21.3
...
2024 02 20    13 29 44.9 +06 29 16   0.03868 1.0141   130.5    47.8    19.8
2024 02 21    13 38 34.9 -03 55 37   0.03493 1.0102   127.0    51.4    19.7
2024 02 22    13 49 19.4 -16 17 04   0.03263 1.0063   121.2    57.2    19.7
...
2024 02 28    16 41 07.4 -74 03 08   0.05152 0.9844    81.9    95.1    22.0
...
2024 03 07    22 24 08.3 -74 12 48   0.1065  0.9598    69.3   104.8    24.0
...
2024 03 22    23 36 44.4 -65 19 45   0.2147  0.9305    66.1   101.7    25.3

A. U. Tomatic                (C) Copyright 2024 MPC           M.P.E.C. 2024-D92





More information about the Iaude mailing list